Flag for Iran Weather past 2 weeks in Mashhad, Iran

Now
72 °F

Sunny.


Feels Like: 74 °F
Forecast: 47 / 75 °F
Wind: 7 mph from East

Location: Mashhad Airport


UV Index: 7 (High)

Visibility: 10 mi


Pressure: 30.09 "Hg

Humidity: 19%

Dew point: 27 °F

Location of MashhadLocation

Historic Weather in Mashhad

°F

Mashhad temperature yesterday

Maximum temperature yesterday: 68 °F (at 12:00 PM)
Minimum temperature yesterday: 50 °F (at 5:00 AM)
Average temperature yesterday: 58 °F

Past Weeks' High & Low Weather Summary

 TemperatureHumidityPressure
High81 °F (Apr 9, 4:30 PM)100% (Apr 4, 9:55 PM)30.48 "Hg (Apr 4, 9:55 PM)
Low37 °F (Apr 7, 7:00 AM)12% (Apr 9, 5:00 PM)29.77 "Hg (Apr 3, 4:00 PM)
Average56 °F59%30.10 "Hg
* Reported Apr 3 1:30 PM — Apr 18 1:55 PM, Mashhad, Weather by CustomWeather, © 2014

Note: Actual official high and low records may vary slightly from our data, if they occured in-between our weather recording intervals... More about our weather records

Advertising

Historic Weather Conditions — Data for Previous 24 hours

 ConditionsComfort  
Time TempWeatherWind HumidityBarometerVisibility
1:55 PM
Apr 18
70 °FSunny.9 mph21%30.09 "Hg10 mi
1:30 PM70 °FPassing clouds.7 mph20%30.09 "HgN/A
1:00 PM70 °FSunny.9 mph25%30.12 "Hg10 mi
12:30 PM70 °FPassing clouds.5 mph23%30.12 "HgN/A
12:00 PM68 °FPassing clouds.14 mph28%30.15 "HgN/A
11:20 AM68 °FPassing clouds.5 mph26%30.15 "HgN/A
11:00 AM66 °FPassing clouds.9 mph35%30.15 "HgN/A
10:30 AM64 °FPassing clouds.5 mph40%30.15 "HgN/A
10:00 AM63 °FPassing clouds.5 mph49%30.15 "HgN/A
9:30 AM59 °FSunny.5 mph55%30.15 "Hg10 mi
9:00 AM57 °FSunny.7 mph63%30.15 "Hg10 mi
8:30 AM55 °FSunny.7 mph67%30.15 "Hg10 mi
8:00 AM54 °FSunny.5 mph67%30.15 "Hg10 mi
6:59 AM55 °FClear.No wind63%30.12 "Hg10 mi
6:30 AM48 °FClear.5 mph76%30.12 "Hg4 mi
6:00 AM46 °FClear.5 mph87%30.12 "Hg5 mi
5:30 AM46 °FClear.5 mph87%30.12 "Hg4 mi
4:58 AM48 °FClear.5 mph82%30.12 "Hg4 mi
4:00 AM48 °FClear.5 mph82%30.12 "Hg10 mi
3:30 AM48 °FClear.No wind82%30.12 "Hg10 mi
3:00 AM48 °FClear.5 mph82%30.12 "Hg10 mi
2:30 AM50 °FClear.5 mph82%30.12 "Hg10 mi
1:55 AM50 °FClear.5 mph76%30.12 "Hg10 mi
1:30 AM50 °FClear.5 mph76%30.12 "Hg10 mi
12:55 AM52 °FClear.5 mph72%30.12 "Hg10 mi
12:30 AM52 °FClear.7 mph72%30.12 "Hg10 mi
11:55 PM
Apr 17
52 °FClear.5 mph77%30.12 "Hg10 mi
11:30 PM52 °FClear.5 mph77%30.12 "Hg10 mi
11:00 PM54 °FClear.No wind72%30.12 "Hg10 mi
10:30 PM54 °FClear.No wind77%30.12 "Hg10 mi
9:30 PM55 °FClear.No wind72%30.12 "Hg10 mi
8:55 PM57 °FPassing clouds.5 mph63%30.12 "HgN/A
8:30 PM57 °FScattered clouds.No wind63%30.12 "HgN/A
7:55 PM59 °FScattered clouds.5 mph63%30.12 "HgN/A
7:30 PM61 °FScattered clouds.No wind48%30.12 "HgN/A
6:55 PM61 °FScattered clouds.5 mph48%30.09 "HgN/A
6:30 PM61 °FScattered clouds.5 mph48%30.09 "HgN/A
6:00 PM59 °FScattered clouds.5 mph55%30.09 "HgN/A
5:30 PM59 °FScattered clouds.12 mph59%30.09 "HgN/A
4:55 PM57 °FSprinkles. Scattered clouds.9 mph67%30.09 "HgN/A
4:30 PM55 °FSprinkles. Scattered clouds.14 mph77%30.12 "HgN/A
4:00 PM57 °FSprinkles. Scattered clouds.18 mph63%30.12 "Hg4 mi
3:30 PM59 °FScattered clouds.7 mph63%30.09 "HgN/A
3:00 PM63 °FScattered clouds.14 mph45%30.09 "HgN/A
Weather by CustomWeather, © 2014

See weather overview